RH
8 5 3 3 4 5 5 11 12 10 8 8 7 7 6 6 6 6 8 8 8 8 10 12 15 16 16 16 14 13 12 12 12 10 10 10 9 9 10 12 12 13 13
13 9 5 4 4 5 7 7 9 12 12 9 8 8 7 7 7 8 8 8 9 10 10 12 14 15 16 16 16 16 16 16 14 11 12 12 10 10 10 11 12 13 14
20 18 12 7 5 5 6 8 9 10 10 11 9 8 8 8 7 8 9 9 10 11 12 13 15 15 14 13 14 14 15 16 16 14 13 12 10 10 11 11 11 11 11
22 21 17 14 12 9 8 8 8 9 9 9 9 9 8 8 8 8 9 9 10 12 13 13 14 15 13 12 10 9 9 12 14 13 13 12 12 11 12 12 12 12 12
16 18 21 22 25 19 13 11 9 8 8 8 9 9 10 9 10 11 12 12 13 14 16 15 13 13 12 11 11 12 11 9 8 8 8 9 9 10 10 10 11 11 11
15 18 17 16 21 22 17 14 12 10 8 8 8 8 9 10 11 12 15 16 17 17 18 19 18 18 16 16 17 17 16 18 23 25 26 25 27 26 26 27 28 29 29
14 16 17 16 16 19 22 21 15 12 9 8 8 10 10 11 12 14 19 22 22 19 20 24 27 28 27 25 24 26 28 28 27 25 26 26 27 26 30 34 36 38 39
18 17 16 15 16 15 18 22 23 19 13 9 8 11 12 13 16 19 24 28 29 27 26 27 27 25 25 23 23 24 24 25 26 29 32 33 35 37 38 42 42 42 41
19 20 17 16 16 17 16 17 23 31 18 13 10 11 12 14 16 20 23 37 40 38 37 31 31 30 32 33 32 33 35 35 36 37 39 40 39 38 38 39 39 38 36
20 22 21 20 18 17 16 18 19 20 18 14 14 15 16 16 17 20 25 41 48 46 45 40 39 38 37 36 36 37 40 41 40 40 37 35 36 39 44 40 37 37 36
27 22 24 24 23 22 20 17 16 19 18 15 15 16 18 21 21 22 32 54 60 54 51 45 42 41 41 43 44 43 41 41 41 38 40 43 28 25 38 42 44 42 39
30 34 25 30 27 26 26 22 19 18 18 18 18 21 22 27 25 24 26 42 72 66 61 53 48 46 46 46 45 44 45 46 45 46 48 46 38 38 32 34 36 37 38
24 30 30 28 29 28 30 28 24 21 19 20 24 26 26 29 29 28 28 31 56 82 70 64 57 51 49 49 49 50 52 52 49 49 52 46 46 48 50 49 46 42 37
11 14 24 20 33 36 36 34 31 26 23 22 26 31 32 33 31 31 29 29 36 68 90 70 68 64 60 58 56 58 58 54 51 49 53 47 41 48 48 44 41 40 39
19 12 16 14 14 33 38 36 35 29 25 25 30 35 36 34 34 33 31 31 33 49 86 84 69 71 72 70 69 66 61 58 58 50 55 36 34 42 39 40 43 45 39
9 10 10 13 13 20 34 38 39 33 29 26 32 35 37 36 36 35 34 31 38 40 59 83 76 65 65 64 61 60 58 65 64 55 55 31 27 33 42 47 49 38 28
10 9 7 10 10 13 26 36 40 41 36 31 30 32 36 38 37 37 36 31 35 58 61 74 71 62 62 61 56 56 62 68 66 62 54 43 44 48 51 49 34 29 27
11 9 7 7 11 9 14 32 34 42 41 44 38 35 34 33 29 24 24 26 29 93 96 72 74 68 58 57 59 61 67 72 71 66 58 51 51 49 48 42 32 30 28
13 10 8 9 9 9 8 14 27 30 38 46 46 46 48 47 47 36 21 19 22 28 79 99 73 75 71 63 64 74 75 82 78 70 62 54 53 51 42 32 31 30 26
15 11 9 10 11 10 11 11 14 18 16 42 50 51 52 50 46 46 43 36 34 38 65 84 81 90 80 74 80 88 91 87 84 70 64 56 51 45 36 32 31 28 29
13 14 15 14 12 12 12 13 13 21 10 14 34 55 56 59 59 57 56 55 55 61 75 71 66 97 94 79 80 84 91 96 83 75 66 54 50 39 34 33 30 30 29
13 12 13 17 15 14 13 13 15 28 19 13 14 30 49 64 66 64 59 64 71 78 95 94 97 96 96 86 81 81 83 73 73 59 48 48 47 36 34 34 34 32 30
13 14 14 16 19 16 16 15 14 17 16 14 13 14 26 51 64 67 68 67 69 78 81 82 91 95 97 96 96 91 84 66 62 48 36 42 37 35 37 37 36 34 34
12 15 15 18 20 18 19 18 16 20 20 21 34 35 23 29 45 67 69 64 61 66 63 67 81 90 91 97 97 94 86 57 47 32 39 39 37 43 42 40 39 41 42
11 13 15 16 21 20 19 19 18 20 31 23 22 22 20 27 27 54 70 67 60 62 65 73 85 88 90 86 81 62 52 40 32 43 40 41 46 46 42 41 46 53 58
14 13 14 16 18 25 18 21 21 20 25 23 20 18 18 19 19 52 74 72 75 78 82 87 97 93 99 62 57 44 35 38 55 41 39 49 47 48 47 57 63 60 52
Wind_Speed
19 20 21 22 23 23 23 21 20 20 19 19 19 18 19 18 17 18 18 19 19 17 16 16 15 14 13 14 14 15 15 16 18 19 19 20 20 20 22 21 21 22 22
21 22 20 20 21 23 23 24 23 23 21 20 20 20 20 20 19 19 19 18 16 15 16 16 16 16 14 15 14 16 16 17 19 18 19 21 22 22 23 23 23 24 24
24 23 23 21 21 22 22 23 25 25 25 24 22 23 21 21 21 20 19 18 18 16 16 17 17 17 15 16 16 17 17 18 20 20 20 21 21 21 22 22 22 23 23
22 25 24 22 22 22 22 23 24 25 25 25 25 25 24 23 21 21 20 19 19 18 18 18 19 19 18 18 18 19 21 21 22 21 22 22 22 22 23 23 24 24 24
23 24 26 25 24 24 25 24 25 25 25 26 26 25 26 24 23 21 20 20 20 19 18 18 18 18 19 18 19 20 21 22 22 22 22 23 24 25 26 27 27 27 26
25 24 26 27 26 25 25 25 24 25 25 26 26 27 26 25 24 22 21 20 21 21 20 20 19 18 18 18 19 19 20 19 20 20 22 22 22 23 24 24 24 24 24
25 25 26 27 28 27 28 28 26 26 26 26 26 26 26 25 24 23 22 22 21 21 21 21 21 21 22 22 23 23 24 24 25 26 26 28 28 28 27 26 26 26 25
26 26 28 28 28 29 28 30 28 26 26 28 27 27 27 26 25 24 23 22 21 20 20 20 21 21 22 22 22 22 21 22 22 24 23 27 27 28 28 27 27 27 26
31 28 29 27 27 27 28 28 29 28 26 26 27 27 26 26 25 25 23 22 20 20 20 20 20 19 20 20 20 20 20 20 21 22 23 25 26 27 27 26 27 27 25
33 29 30 28 27 27 28 28 28 28 28 26 26 26 25 25 25 25 24 23 21 20 21 21 20 20 20 20 19 19 19 21 23 25 30 31 32 32 30 28 27 27 27
34 34 30 31 30 29 28 29 29 29 26 27 27 26 25 24 24 25 24 23 21 20 20 20 21 20 19 20 21 22 24 26 26 26 28 28 28 31 33 33 32 31 30
35 35 35 30 32 30 29 30 29 28 28 27 28 27 25 24 24 25 25 25 24 22 23 23 23 24 24 25 25 27 27 27 26 26 27 27 26 22 24 32 35 35 35
36 37 37 34 32 33 31 31 30 29 28 27 27 26 26 25 25 26 26 27 27 26 27 27 27 28 28 28 28 29 29 28 28 28 30 30 28 26 25 25 25 24 27
32 34 36 38 33 34 33 31 30 30 29 27 26 28 26 27 27 27 28 28 28 27 29 30 30 31 31 31 30 31 32 31 30 30 30 32 30 29 28 27 27 30 31
32 31 31 35 36 34 35 33 31 31 30 29 26 26 27 28 30 30 29 28 28 29 30 32 33 34 34 34 33 34 34 33 33 31 32 33 31 30 30 30 32 35 37
34 34 32 34 35 35 34 34 32 33 30 29 27 27 28 29 30 32 31 30 29 30 31 32 35 35 36 36 36 37 37 36 36 34 33 31 30 31 33 34 37 39 39
36 37 34 33 33 31 36 35 35 32 30 30 28 29 30 32 33 33 33 33 30 30 30 32 34 36 37 37 37 37 39 39 38 36 34 32 32 34 36 38 40 41 42
36 38 35 29 30 30 30 37 38 36 33 30 31 31 32 33 33 34 35 36 32 32 35 32 34 35 38 39 39 39 40 40 40 37 36 36 35 37 39 41 42 43 45
34 36 34 32 30 31 30 31 37 37 37 33 32 30 33 34 35 34 36 38 36 36 40 34 36 37 37 38 39 40 40 40 39 39 38 38 39 40 40 42 45 46 46
35 35 37 36 33 35 35 32 33 37 33 35 36 32 33 34 36 35 37 36 38 37 40 45 41 45 36 37 39 39 41 40 39 40 40 41 41 43 44 44 46 47 48
40 41 39 41 38 40 38 37 33 38 34 30 36 36 34 35 35 37 37 38 38 38 40 43 46 43 38 38 39 40 41 43 40 41 42 42 42 44 47 47 49 51 53
38 42 44 45 44 43 43 40 40 39 32 33 35 36 36 35 36 37 37 39 39 40 41 39 40 47 39 40 41 41 43 39 41 42 43 44 46 47 48 49 52 56 58
42 43 45 47 51 46 46 47 45 41 35 37 38 37 35 36 35 38 38 39 40 38 39 42 39 37 39 41 43 50 42 42 43 44 43 45 47 49 50 53 57 59 59
48 48 48 48 50 55 48 51 48 45 39 40 40 37 36 36 37 39 39 39 41 41 40 39 42 43 44 39 51 42 40 45 47 45 46 47 48 50 53 55 58 58 60
55 52 52 51 52 54 55 53 50 47 42 42 44 41 39 39 38 39 39 38 39 41 41 40 43 42 42 43 42 42 46 48 48 48 48 50 52 56 58 59 57 58 61
57 58 57 55 53 54 57 54 54 49 46 44 45 44 41 40 38 39 38 36 37 39 40 39 37 42 44 44 44 47 47 47 50 51 52 53 55 55 57 58 60 63 65
Wind_Direction
244 250 251 253 256 257 260 259 257 258 258 264 266 266 267 266 264 264 262 261 263 261 259 260 263 266 268 272 277 279 282 285 286 286 286 285 282 280 280 280 282 285 286
247 248 246 247 251 253 254 257 259 262 265 263 265 269 274 275 274 272 268 265 264 267 265 261 261 261 263 266 272 278 282 286 287 286 287 285 283 280 281 283 284 286 286
247 247 251 244 246 250 254 256 258 259 263 267 266 266 265 268 273 274 270 270 268 266 265 265 263 264 267 269 272 276 278 281 283 282 284 285 284 285 285 287 288 287 288
249 249 251 256 252 249 249 250 254 256 257 259 264 266 264 265 268 271 268 269 269 267 266 265 267 271 273 274 275 278 279 276 277 280 282 283 284 284 284 286 285 285 288
248 248 251 253 257 251 246 246 250 252 255 257 258 259 264 266 267 269 270 268 266 266 265 266 268 272 276 278 281 283 284 284 281 282 281 282 282 282 282 283 282 284 285
251 253 249 251 253 257 256 251 249 250 253 254 258 260 258 262 266 269 268 267 267 266 266 266 268 271 273 275 278 280 279 278 280 281 283 282 283 282 283 285 285 284 284
251 252 255 254 252 253 255 258 254 251 255 256 256 258 259 260 262 265 266 266 265 265 266 267 270 271 271 272 274 273 273 276 279 283 285 285 286 283 282 283 283 281 281
253 250 249 252 255 253 252 252 255 257 258 258 260 261 262 262 261 261 263 265 266 267 266 266 266 269 269 270 272 275 279 282 285 285 289 285 286 285 285 283 281 280 279
254 255 258 257 259 261 260 259 259 259 261 261 260 262 263 264 266 267 266 265 268 269 268 266 264 264 268 271 273 277 280 283 286 289 289 290 289 288 285 282 280 280 279
256 255 261 264 263 263 265 266 266 266 267 266 266 265 265 265 267 267 267 268 266 270 270 268 266 267 269 271 274 274 276 281 286 291 288 288 284 282 281 280 280 277 277
255 256 255 263 266 269 269 268 268 268 268 266 265 266 268 270 270 269 268 268 267 269 270 270 270 269 267 267 270 274 280 285 290 293 289 290 291 283 273 274 275 277 279
255 257 257 256 263 266 271 271 273 271 271 271 271 268 269 274 275 276 275 271 268 267 267 265 265 266 266 269 273 277 280 285 290 288 291 292 290 297 291 277 275 275 275
252 256 260 259 259 262 265 268 272 273 273 274 273 271 269 268 270 274 275 271 266 265 265 265 264 266 268 269 273 277 281 284 288 288 290 292 285 287 289 290 292 293 287
257 256 257 262 258 262 263 267 267 271 274 272 272 273 272 270 272 275 279 281 274 266 263 263 265 266 268 271 273 276 280 284 287 287 289 291 284 282 283 285 290 291 290
262 260 258 259 260 256 262 263 267 267 269 272 272 271 271 272 274 277 280 284 279 271 265 264 263 266 268 271 273 276 279 282 285 286 289 291 284 283 282 288 291 293 294
264 263 260 260 261 263 258 263 266 269 268 270 270 271 272 273 277 279 280 281 283 280 271 268 267 266 268 272 274 276 278 279 283 286 288 291 284 284 287 292 294 295 294
258 261 261 260 264 261 263 259 262 264 267 269 270 271 272 274 275 278 279 279 280 277 279 274 271 269 270 272 274 276 277 280 282 286 286 288 286 287 291 294 296 296 295
255 258 260 258 257 262 257 262 261 262 265 269 271 272 271 272 275 275 275 275 276 270 274 273 274 273 273 273 274 276 278 280 282 284 287 289 289 292 294 295 296 296 296
255 257 257 258 257 258 264 258 263 264 264 266 268 272 274 275 276 279 278 279 278 278 271 270 276 275 276 277 277 279 279 281 284 286 289 291 292 293 295 296 297 297 296
254 255 257 261 259 260 259 261 261 266 267 264 268 270 272 276 279 282 281 284 282 280 281 275 280 273 272 277 279 280 281 282 284 286 290 292 295 296 297 298 298 297 296
253 254 254 257 256 258 260 260 261 262 264 266 264 267 270 274 278 279 282 285 286 282 281 279 273 276 271 276 280 283 284 282 287 290 291 293 296 298 297 298 298 296 297
257 256 253 254 254 254 257 259 260 261 266 267 270 268 267 270 273 279 283 283 287 287 286 289 279 271 271 274 278 281 284 290 292 294 294 297 297 295 296 297 297 297 298
255 255 254 252 253 247 251 253 258 263 264 266 266 268 268 271 272 278 280 284 285 288 288 290 291 291 284 277 283 276 281 289 291 292 293 294 294 296 297 298 299 299 299
259 255 253 250 250 252 243 250 254 259 259 262 264 266 271 272 272 277 280 284 286 289 287 285 288 290 293 276 293 297 292 292 293 292 294 294 295 296 297 299 299 299 301
262 260 258 254 249 248 248 246 249 254 256 258 261 265 268 271 273 275 279 284 287 287 287 287 292 287 290 292 295 295 294 294 294 295 295 297 299 300 300 300 300 299 298
261 260 256 255 253 249 249 246 246 249 252 252 257 261 264 267 272 275 279 283 286 288 289 292 276 292 290 295 295 294 294 294 295 296 295 296 299 300 300 301 301 300 299